ORBCOMM-X 1 21576U 91050C 26033.59882037 .00000351 00000+0 11639-3 0 9993 2 21576 98.3143 100.1792 0003301 190.9454 169.1665 14.43488447815353 ORBCOMM FM01 1 23545U 95017A 26033.52419072 .00008093 00000+0 76502-3 0 9997 2 23545 69.9594 218.1974 0005860 298.0794 61.9770 14.94006713646868 ORBCOMM FM02 1 23546U 95017B 26033.00405348 .00007690 00000+0 69330-3 0 9995 2 23546 69.9607 237.7912 0006939 303.3573 56.6920 14.95895119646467 ORBCOMM FM08 1 25112U 97084A 26033.55006182 .00001937 00000+0 56855-3 0 9991 2 25112 45.0148 341.2133 0007825 334.1737 25.8724 14.46841189474720 ORBCOMM FM10 1 25113U 97084B 26033.56840392 .00001815 00000+0 53845-3 0 9993 2 25113 45.0159 343.9461 0006349 306.5503 53.4764 14.46572392649867 ORBCOMM FM11 1 25114U 97084C 26033.54453098 .00001625 00000+0 48865-3 0 9990 2 25114 45.0147 345.1209 0007216 306.7910 53.2279 14.46310754474819 ORBCOMM FM12 1 25115U 97084D 26033.29645841 .00001648 00000+0 49492-3 0 9994 2 25115 45.0151 346.0382 0006267 304.3798 55.6461 14.46336437474578 ORBCOMM FM09 1 25116U 97084E 26033.28242030 .00001597 00000+0 48262-3 0 9994 2 25116 45.0157 347.3006 0007379 293.7745 66.2333 14.46165810474773 ORBCOMM FM05 1 25117U 97084F 26033.56711097 .00001899 00000+0 55702-3 0 9992 2 25117 45.0154 341.1245 0003868 310.4925 49.5589 14.46951936473963 ORBCOMM FM06 1 25118U 97084G 26033.56761079 .00002001 00000+0 58273-3 0 9990 2 25118 45.0148 340.5765 0002783 313.2494 216.7687 14.47125182474880 ORBCOMM FM07 1 25119U 97084H 26033.27078512 .00001706 00000+0 50280-3 0 9993 2 25119 45.0143 342.7474 0004675 304.8688 55.1725 14.47128477474833 ORBCOMM FM03 1 25158U 98007B 26033.54707198 .00001366 00000+0 51720-3 0 9993 2 25158 107.9665 249.0317 0045286 207.9707 151.8997 14.35217118457087 ORBCOMM FM04 1 25159U 98007C 26033.49210492 .00001135 00000+0 43632-3 0 9991 2 25159 107.9652 252.2964 0040974 205.5620 154.3494 14.35447265457263 ORBCOMM FM17 1 25413U 98046A 26033.57211251 .00000749 00000+0 30572-3 0 9999 2 25413 44.9931 249.8531 0002341 300.9217 59.1400 14.35669087436271 ORBCOMM FM18 1 25414U 98046B 26033.64904093 .00001430 00000+0 50129-3 0 9999 2 25414 44.9910 160.5662 0003100 354.7185 5.3631 14.39339843437445 ORBCOMM FM19 1 25415U 98046C 26033.42591962 .00001303 00000+0 46266-3 0 9999 2 25415 44.9922 163.9752 0002047 338.2334 66.8975 14.39160439437365 ORBCOMM FM20 1 25416U 98046D 26033.43816186 .00000986 00000+0 37088-3 0 9997 2 25416 44.9929 170.3922 0000501 186.6671 173.4171 14.37807041437397 ORBCOMM FM16 1 25417U 98046E 26033.63197383 .00001544 00000+0 53357-3 0 9999 2 25417 44.9925 157.8468 0002803 18.5978 341.4972 14.39723333437455 ORBCOMM FM15 1 25418U 98046F 26033.38910929 .00001214 00000+0 43245-3 0 9990 2 25418 44.9949 164.8537 0002524 18.8064 341.2877 14.39344933437408 ORBCOMM FM14 1 25419U 98046G 26033.62159474 .00001450 00000+0 50322-3 0 9994 2 25419 44.9944 161.2672 0001326 7.2547 352.8321 14.39776659437419 ORBCOMM FM13 1 25420U 98046H 26033.46158215 .00001192 00000+0 43403-3 0 9995 2 25420 44.9960 172.3807 0003741 350.7959 9.2821 14.38351680436383 ORBCOMM FM21 1 25475U 98053A 26033.59654557 .00000892 00000+0 33933-3 0 9990 2 25475 45.0074 257.8982 0001525 330.0386 30.0374 14.37933045430409 ORBCOMM FM22 1 25476U 98053B 26033.03787311 .00000963 00000+0 35409-3 0 9994 2 25476 45.0064 253.4080 0002973 313.0217 47.0382 14.39139141430372 ORBCOMM FM23 1 25477U 98053C 26033.35439471 .00000943 00000+0 35432-3 0 9995 2 25477 45.0074 260.7879 0002405 313.2332 46.8315 14.38187505430527 ORBCOMM FM24 1 25478U 98053D 26033.05791984 .00000939 00000+0 34836-3 0 9995 2 25478 45.0070 258.6101 0002217 322.4166 37.6527 14.38820353430546 ORBCOMM FM25 1 25479U 98053E 26033.58956265 .00000988 00000+0 36447-3 0 9993 2 25479 45.0061 254.3937 0004498 329.1221 30.9363 14.38791817430913 ORBCOMM FM26 1 25480U 98053F 26033.62093767 .00000788 00000+0 30616-3 0 9999 2 25480 45.0058 252.4504 0006427 343.1145 16.9488 14.37736721430807 ORBCOMM FM27 1 25481U 98053G 26033.64130603 .00001026 00000+0 37655-3 0 9999 2 25481 45.0045 254.2599 0000967 2.5484 357.5369 14.38831105430853 ORBCOMM FM28 1 25482U 98053H 26033.51567203 .00001133 00000+0 41001-3 0 9995 2 25482 45.0039 192.0857 0003639 23.0236 337.0775 14.38937324431524 ORBCOMM FM30 1 25980U 99065A 26033.37627259 .00000931 00000+0 35234-3 0 9990 2 25980 45.0315 79.6781 0004233 87.0309 273.1024 14.37899151367576 ORBCOMM FM31 1 25981U 99065B 26033.49950720 .00000942 00000+0 35652-3 0 9992 2 25981 45.0229 72.5400 0002288 139.3190 220.7830 14.37822157367146 ORBCOMM FM32 1 25982U 99065C 26033.55869377 .00000946 00000+0 36459-3 0 9997 2 25982 45.0155 90.3746 0004517 120.5089 239.6205 14.36887247367721 ORBCOMM FM33 1 25983U 99065D 26033.23776983 .00001176 00000+0 40904-3 0 9999 2 25983 45.0300 344.6816 0006491 142.8163 217.3137 14.40700973369230 ORBCOMM FM36 1 25984U 99065E 26033.49789155 .00001211 00000+0 43571-3 0 9996 2 25984 45.0381 78.8509 0002548 330.5188 29.5517 14.38877995367584 ORBCOMM FM35 1 25985U 99065F 26033.50933213 .00001135 00000+0 42025-3 0 9993 2 25985 45.0393 85.7200 0002367 143.2602 216.8409 14.37782180367921 ORBCOMM FM34 1 25986U 99065G 26033.40865544 .00000908 00000+0 34617-3 0 9999 2 25986 45.0389 86.6870 0001776 44.4197 315.6794 14.37705007368024 ORBCOMM FM38 1 33060U 08031A 26033.14176260 .00001745 00000+0 24132-3 0 9996 2 33060 48.4398 298.4260 0004876 311.0358 49.0136 14.82559939948859 ORBCOMM FM41 1 33061U 08031B 26033.17258639 .00001627 00000+0 22922-3 0 9995 2 33061 48.4437 306.8817 0004200 295.5759 212.1619 14.82099601948335 ORBCOMM FM29 1 33062U 08031C 26033.20559017 .00001883 00000+0 26016-3 0 9996 2 33062 48.4393 314.2104 0005840 295.8283 217.6927 14.82265901948256 ORBCOMM FM39 1 33063U 08031D 26033.17288418 .00001968 00000+0 28075-3 0 9998 2 33063 48.4410 341.2746 0006867 266.9715 93.0415 14.80668754947863 ORBCOMM FM37 1 33064U 08031E 26033.54806546 .00001931 00000+0 27480-3 0 9997 2 33064 48.4403 327.6527 0005467 287.4352 242.8195 14.80864926948174 ORBCOMM FM40 1 33065U 08031F 26033.49147385 .00002404 00000+0 31569-3 0 9990 2 33065 48.4416 307.8563 0006269 303.0944 227.0713 14.83459112948331 VESSELSAT 1 1 37840U 11058C 26033.58029935 .00000373 00000+0 58715-4 0 9994 2 37840 19.9609 139.7132 0013529 200.7365 159.2491 14.11412141738893 ORBCOMM FM109 1 40086U 14040A 26033.30728890 .00000862 00000+0 21950-3 0 9993 2 40086 47.0047 9.1058 0002455 308.9662 51.1005 14.58660086614653 ORBCOMM FM107 1 40087U 14040B 26033.32387008 .00000877 00000+0 22233-3 0 9999 2 40087 47.0065 9.8944 0001863 269.5609 90.5063 14.58737131614736 ORBCOMM FM106 1 40088U 14040C 26033.40397540 .00001226 00000+0 23240-3 0 9999 2 40088 47.0589 172.9743 0015680 56.4481 303.7906 14.70205083617345 ORBCOMM FM111 1 40089U 14040D 26033.19027274 .00002886 00000+0 33146-3 0 9999 2 40089 47.0017 352.2750 0028820 216.4803 143.4131 14.88109801624469 ORBCOMM FM104 1 40090U 14040E 26033.42970747 .00000594 00000+0 16785-3 0 9993 2 40090 47.0056 45.7944 0016053 180.9964 179.0891 14.57107651614195 ORBCOMM FM103 1 40091U 14040F 26033.30932030 .00000797 00000+0 20570-3 0 9996 2 40091 47.0067 10.6580 0002472 266.1876 93.8728 14.58644950597690 ORBCOMM FM114 1 41179U 15081A 26033.05133236 .00000579 00000+0 15941-3 0 9997 2 41179 47.0049 280.8259 0002739 298.6130 61.4480 14.58666005538024 ORBCOMM FM119 1 41180U 15081B 26033.59724192 .00000710 00000+0 18721-3 0 9991 2 41180 46.9989 187.6020 0000671 344.7119 15.3746 14.58608787539353 ORBCOMM FM105 1 41181U 15081C 26033.48970479 .00000226 00000+0 10805-3 0 9998 2 41181 46.9997 215.6082 0002143 269.6677 90.3958 14.45460651534066 ORBCOMM FM110 1 41182U 15081D 26033.65692375 .00000836 00000+0 21396-3 0 9998 2 41182 47.0020 277.4434 0002621 183.8021 176.2845 14.58656947537986 ORBCOMM FM118 1 41183U 15081E 26033.07499927 .00000778 00000+0 20163-3 0 9999 2 41183 47.0039 280.5015 0002448 135.3342 224.7742 14.58658410538008 ORBCOMM FM112 1 41184U 15081F 26033.42049444 .00000999 00000+0 24852-3 0 9998 2 41184 46.9978 187.3836 0002113 290.4489 69.6170 14.58653120539272 ORBCOMM FM113 1 41185U 15081G 26033.46625516 .00000986 00000+0 24584-3 0 9991 2 41185 46.9992 187.5306 0001756 295.1387 64.9316 14.58656660539265 ORBCOMM FM115 1 41186U 15081H 26033.37382014 .00000861 00000+0 20033-3 0 9992 2 41186 46.9995 24.3611 0000931 338.2304 21.8543 14.63043784541471 ORBCOMM FM108 1 41187U 15081J 26033.56597299 .00001172 00000+0 28527-3 0 9999 2 41187 47.0046 98.5864 0003422 285.7238 74.3270 14.58660451540428 ORBCOMM FM117 1 41188U 15081K 26033.53135736 .00001061 00000+0 26182-3 0 9993 2 41188 47.0010 97.4273 0003726 293.0676 66.9817 14.58653951540462 ORBCOMM FM116 1 41189U 15081L 26033.58049123 .00000583 00000+0 16022-3 0 9993 2 41189 47.0010 186.9743 0001851 180.7133 179.3750 14.58637458539283